Location: Bidart
(43.4376°N, 1.5913°W)
Time: 18:53:53
(UTC+00:00)

Cosmos 405 Rocket - Pass Details

Date: 19 May 2025
Orbit: 413 x 447 km, 81.2° (Epoch: 22 June)

Event Time Altitude Azimuth Distance (km) Brightness Sun altitude
Rises 23:13:26 0° 344° (NNW) 2,452 7.5 -25.6°
Reaches altitude 10° 23:15:34 10° 338° (NNW) 1,570 6.1 -25.7°
Enters shadow 23:17:34 29° 317° (NW) 834 4.2 -25.7°
